sat.trackr.live / text

‹ back to catalog

STARLINK-34606

NORAD 64730 · 2025-144G

PAYLOAD ACTIVE UNKNOWN

§ Identity

Operator
Country
US
Launch date
2025-07-02
Launch site
AFETR
Launch vehicle
Mass (kg)
RCS (m²)

Purposes: comms

External: N2YO · Heavens-Above · Gunter

§ Orbital elements

Epoch: 2026-09-20T13:13:01.791552Z

Period
93.85 min
Inclination
53.1594°
Eccentricity
0.0001217
Mean motion
15.34412113 rev/d
Perigee alt
461.8 km
Apogee alt
463.5 km
Semi-major
6,840.8 km
B*
4.7595e-4
RAAN
353.2634°
Arg perigee
76.8604°
Mean anomaly
283.2534°
Rev number
6,958

§ Raw data

STARLINK-346061 64730U 25144G   26263.55071518  .00015745  00000+0  47595-3 0  99912 64730  53.1594 353.2634 0001217  76.8604 283.2534 15.34412113 69587

JSON: /api/v1/satellites/64730 · /tle

For live sub-satellite position, see the globe view (requires WebGL).

§ Visibility from observer

Set your observer location to see the next 7 days of passes ≥ 10°. The values pass through the URL so the page stays shareable.

No JS? Fill the form by hand. The geolocation button needs JavaScript.